Weather History for Mosby, MO

Change the Weather History Date:

Saturday, November 24, 2012

  Actual Average (KMKC) Record (KMKC)
Temperature  
Mean Temperature 32 °F -  
Max Temperature 44 °F 50 °F 66 °F (2011)
Min Temperature 19 °F 33 °F 14 °F (2013)
Degree Days  
Heating Degree Days 34    
Moisture  
Dew Point 21 °F    
Average Humidity 64    
Maximum Humidity 93    
Minimum Humidity 39    
Precipitation  
Precipitation 0.00 in - - ()
Sea Level Pressure  
Sea Level Pressure 30.18 in    
Wind  
Wind Speed 3 mph ()    
Max Wind Speed 13 mph    
Max Gust Speed 17 mph    
Visibility 10.0 miles    
Events      
Averages and records for this station are not official NWS values.
T = Trace of Precipitation, MM = Missing Value Source: Averaged Metar Reports

Daily Weather History Graph

Daily Weather History Graph

Search for Another Location

Airport:

Trip Planner

Search our weather history database for the weather conditions in past years. The results will help you decide how hot, cold, wet, or windy it might be!

Date:

Astronomy

Nov. 24, 2012 Rise Set
Actual Time 7:11 AM CST 4:56 PM CST
Civil Twilight 6:42 AM CST 5:25 PM CST
Nautical Twilight 6:09 AM CST 5:58 PM CST
Astronomical Twilight 5:36 AM CST 6:30 PM CST
Moon 2:40 PM CST (11/24) 3:29 AM CST (11/24)
Length of Visible Light 10h 43m
Length of Day
9h 45m
Waxing Gibbous, 87% of the Moon is Illuminated
Nov 24
Waxing Gibbous
Nov 28
Full
Dec 6
Last Quarter
Dec 13
New
Dec 19
First Quarter

Hourly Weather History & Observations

Time (CST) Temp. Windchill Dew Point Humidity Pressure Visibility Wind Dir Wind Speed Gust Speed Precip Events Conditions
12:15 AM 23.0 °F - 19.4 °F 86% 30.42 in 10.0 mi Calm Calm - N/A   Clear
12:35 AM 21.2 °F - 19.4 °F 93% 30.41 in 10.0 mi Calm Calm - N/A   Clear
1:15 AM 21.2 °F - 17.6 °F 86% 30.41 in 10.0 mi Calm Calm - N/A   Clear
1:35 AM 21.2 °F - 17.6 °F 86% 30.41 in 10.0 mi Calm Calm - N/A   Clear
1:55 AM 21.2 °F - 17.6 °F 86% 30.39 in 10.0 mi Calm Calm - N/A   Clear
2:15 AM 21.2 °F - 17.6 °F 86% 30.39 in 10.0 mi Calm Calm - N/A   Clear
2:35 AM 21.2 °F - 19.4 °F 93% 30.39 in 10.0 mi Calm Calm - N/A   Clear
2:55 AM 21.2 °F - 17.6 °F 86% 30.39 in 10.0 mi Calm Calm - N/A   Clear
3:15 AM 21.2 °F - 17.6 °F 86% 30.40 in 10.0 mi Calm Calm - N/A   Clear
3:35 AM 21.2 °F - 17.6 °F 86% 30.40 in 10.0 mi Calm Calm - N/A   Clear
3:55 AM 21.2 °F - 17.6 °F 86% 30.39 in 10.0 mi Calm Calm - N/A   Clear
4:15 AM 21.2 °F - 17.6 °F 86% 30.38 in 10.0 mi Calm Calm - N/A   Clear
4:35 AM 21.2 °F - 17.6 °F 86% 30.37 in 10.0 mi Calm Calm - N/A   Clear
5:15 AM 21.2 °F - 17.6 °F 86% 30.36 in 10.0 mi Calm Calm - N/A   Clear
5:35 AM 21.2 °F - 19.4 °F 93% 30.37 in 10.0 mi Calm Calm - N/A   Clear
6:15 AM 21.2 °F - 17.6 °F 86% 30.36 in 10.0 mi Calm Calm - N/A   Clear
6:35 AM 21.2 °F - 17.6 °F 86% 30.36 in 10.0 mi Calm Calm - N/A   Clear
6:55 AM 21.2 °F - 17.6 °F 86% 30.37 in 10.0 mi Calm Calm - N/A   Clear
7:15 AM 19.4 °F - 17.6 °F 93% 30.36 in 10.0 mi Calm Calm - N/A   Clear
7:35 AM 19.4 °F - 17.6 °F 93% 30.37 in 10.0 mi Calm Calm - N/A   Clear
7:55 AM 21.2 °F - 19.4 °F 93% 30.36 in 10.0 mi Calm Calm - N/A   Clear
8:15 AM 21.2 °F - 19.4 °F 93% 30.35 in 10.0 mi Calm Calm - N/A   Clear
8:35 AM 23.0 °F - 19.4 °F 86% 30.33 in 10.0 mi Calm Calm - N/A   Clear
8:55 AM 24.8 °F - 21.2 °F 86% 30.33 in 10.0 mi Calm Calm - N/A   Clear
9:15 AM 26.6 °F - 21.2 °F 80% 30.34 in 10.0 mi Calm Calm - N/A   Clear
9:35 AM 28.4 °F - 21.2 °F 74% 30.34 in 10.0 mi Calm Calm - N/A   Clear
10:15 AM 30.2 °F 22.6 °F 19.4 °F 64% 30.31 in 10.0 mi SSE 8.1 mph - N/A   Clear
10:35 AM 32.0 °F 25.6 °F 17.6 °F 55% 30.31 in 10.0 mi SSE 6.9 mph - N/A   Clear
10:55 AM 32.0 °F 25.6 °F 17.6 °F 55% 30.29 in 10.0 mi SSE 6.9 mph - N/A   Clear
11:15 AM 32.0 °F 24.8 °F 17.6 °F 55% 30.27 in 10.0 mi SSE 8.1 mph - N/A   Clear
11:35 AM 33.8 °F 27.7 °F 17.6 °F 52% 30.26 in 10.0 mi ESE 6.9 mph - N/A   Clear
11:55 AM 35.6 °F 28.6 °F 19.4 °F 52% 30.25 in 10.0 mi SE 9.2 mph - N/A   Clear
12:15 PM 35.6 °F 29.2 °F 17.6 °F 48% 30.22 in 10.0 mi SE 8.1 mph - N/A   Clear
12:35 PM 37.4 °F 30.8 °F 17.6 °F 45% 30.20 in 10.0 mi SE 9.2 mph - N/A   Clear
12:55 PM 37.4 °F 31.4 °F 19.4 °F 48% 30.18 in 10.0 mi SE 8.1 mph - N/A   Clear
1:15 PM 39.2 °F 33.0 °F 17.6 °F 42% 30.16 in 10.0 mi SSE 9.2 mph - N/A   Clear
1:35 PM 41.0 °F 35.2 °F 19.4 °F 42% 30.14 in 10.0 mi SSE 9.2 mph - N/A   Clear
1:55 PM 41.0 °F 34.3 °F 19.4 °F 42% 30.12 in 10.0 mi SE 11.5 mph - N/A   Clear
2:15 PM 42.8 °F 36.2 °F 19.4 °F 39% 30.10 in 10.0 mi SSE 12.7 mph 17.3 mph N/A   Clear
2:35 PM 42.8 °F 36.6 °F 19.4 °F 39% 30.09 in 10.0 mi SE 11.5 mph - N/A   Clear
2:55 PM 42.8 °F 37.0 °F 19.4 °F 39% 30.07 in 10.0 mi SE 10.4 mph 16.1 mph N/A   Clear
3:15 PM 42.8 °F 37.0 °F 21.2 °F 42% 30.06 in 10.0 mi SSE 10.4 mph - N/A   Clear
3:35 PM 44.6 °F 40.2 °F 21.2 °F 39% 30.05 in 10.0 mi SSE 8.1 mph - N/A   Clear
3:55 PM 44.6 °F 38.8 °F 21.2 °F 39% 30.04 in 10.0 mi SSE 11.5 mph 17.3 mph N/A   Clear
4:15 PM 44.6 °F 39.2 °F 21.2 °F 39% 30.02 in 10.0 mi SSE 10.4 mph - N/A   Clear
4:35 PM 44.6 °F 39.7 °F 21.2 °F 39% 30.02 in 10.0 mi South 9.2 mph - N/A   Clear
4:55 PM 42.8 °F 37.5 °F 21.2 °F 42% 30.01 in 10.0 mi South 9.2 mph - N/A   Unknown
5:15 PM 42.8 °F 38.0 °F 21.2 °F 42% 30.01 in 10.0 mi South 8.1 mph - N/A   Clear
5:35 PM 41.0 °F 37.1 °F 23.0 °F 49% 30.00 in 10.0 mi SSE 5.8 mph - N/A   Clear
5:55 PM 41.0 °F 37.1 °F 23.0 °F 49% 30.00 in 10.0 mi SSE 5.8 mph - N/A   Clear
6:15 PM 41.0 °F 37.1 °F 23.0 °F 49% 30.00 in 10.0 mi SSE 5.8 mph - N/A   Clear
6:35 PM 41.0 °F 38.0 °F 23.0 °F 49% 29.99 in 10.0 mi SSE 4.6 mph - N/A   Clear
6:55 PM 41.0 °F 38.0 °F 23.0 °F 49% 29.99 in 10.0 mi SSE 4.6 mph - N/A   Clear
7:15 PM 41.0 °F 37.1 °F 24.8 °F 53% 29.98 in 10.0 mi SSE 5.8 mph - N/A   Clear
7:35 PM 41.0 °F 39.0 °F 24.8 °F 53% 29.98 in 10.0 mi SE 3.5 mph - N/A   Clear
7:55 PM 41.0 °F 37.1 °F 24.8 °F 53% 29.97 in 10.0 mi SSE 5.8 mph - N/A   Clear
8:15 PM 39.2 °F 35.9 °F 26.6 °F 61% 29.96 in 10.0 mi SSE 4.6 mph - N/A   Clear
8:35 PM 39.2 °F 35.0 °F 26.6 °F 61% 29.95 in 10.0 mi SE 5.8 mph - N/A   Clear
8:55 PM 37.4 °F 33.8 °F 26.6 °F 65% 29.94 in 10.0 mi SSE 4.6 mph - N/A   Clear
9:15 PM 41.0 °F 39.0 °F 26.6 °F 57% 29.94 in 10.0 mi SSE 3.5 mph - N/A   Clear
9:35 PM 41.0 °F 38.0 °F 26.6 °F 57% 29.93 in 10.0 mi South 4.6 mph - N/A   Clear
9:55 PM 42.8 °F 40.1 °F 26.6 °F 53% 29.92 in 10.0 mi South 4.6 mph - N/A   Clear
10:15 PM 42.8 °F 39.3 °F 26.6 °F 53% 29.91 in 10.0 mi South 5.8 mph - N/A   Scattered Clouds
10:35 PM 42.8 °F 38.0 °F 26.6 °F 53% 29.91 in 10.0 mi South 8.1 mph - N/A   Mostly Cloudy
10:55 PM 44.6 °F 40.7 °F 24.8 °F 46% 29.92 in 10.0 mi SSW 6.9 mph - N/A   Mostly Cloudy
11:15 PM 44.6 °F 41.4 °F 26.6 °F 49% 29.91 in 10.0 mi South 5.8 mph - N/A   Clear
11:35 PM 44.6 °F 41.4 °F 26.6 °F 49% 29.91 in 10.0 mi South 5.8 mph - N/A   Clear
11:55 PM 44.6 °F 42.2 °F 24.8 °F 46% 29.90 in 10.0 mi South 4.6 mph - N/A   Clear